Location: �perlecques
(50.8057°N, 2.1521°E)
Time: 08:34:35
(UTC+00:00)

STARS - Pass Details

Date: 04 April 2023
Orbit: 616 x 630 km, 98.1° (Epoch: 03 June)

Event Time Altitude Azimuth Distance (km) Brightness Sun altitude
Rises 00:29:19 0° 4° (N) 2,918 ? -33.2°
Reaches altitude 10° 00:31:52 10° 350° (N) 2,009 ? -33.1°
Enters shadow 00:33:42 19° 328° (NNW) 1,517 ? -33.0°
